Location: Tierz
(42.1336°N, 0.3549°W)
Time: 11:29:02
(UTC+00:00)

SJ-11-01 - Pass Details

Date: 29 October 2020
Orbit: 685 x 700 km, 98.0° (Epoch: 30 November)

Event Time Altitude Azimuth Distance (km) Brightness Sun altitude
Exits shadow 19:14:29 40° 186° (S) 1,001 5.0 -25.7°
Maximum altitude 19:16:04 71° 258° (WSW) 727 4.4 -26.0°
Drops below altitude 10° 19:20:46 10° 343° (NNW) 2,145 7.1 -26.9°
Sets 19:23:02 0° 346° (NNW) 3,067 7.9 -27.3°
